168  
ASUS43 KTOP 152308  
RWRKS  
 
WEATHER ROUNDUP FOR KANSAS  
NATIONAL WEATHER SERVICE GOODLAND KS  
600 PM CDT SUN JUL 15 2018  
 
NOTE: "FAIR" INDICATES FEW OR NO CLOUDS BELOW 12,000 FEET WITH NO  
SIGNIFICANT WEATHER AND/OR S TO VISIBILITY
.  
 
KSZ001>006-013>018-027>032-041>047-160000-  
NORTHWEST KANSAS  
 
CITY SKY/WX TMP DP RH WIND PRES REMARKS
 
GOODLAND PTSUNNY 86 64 47 NE18G25 30.11S  
HAYS MOSUNNY 89 69 51 E17 29.98F  
HILL CITY MOSUNNY 90 68 48 NE16 30.02F  
RUSSELL CLOUDY 83 67 58 E13 29.97F  

 
 
KSZ061>065-074>080-084>089-160000-  
SOUTHWEST KANSAS  
 
CITY SKY/WX TMP DP RH WIND PRES REMARKS
 
DODGE CITY PTSUNNY 86 64 47 SE16G29 29.98R  
ELKHART MOSUNNY 89 65 44 CALM 30.01F  
GARDEN CITY SUNNY 94 54 25 S6 29.98F  
GREAT BEND CLOUDY 88 70 55 E14 29.97S  
LIBERAL MOSUNNY 96 62 32 S20G26 29.97F HX 97  
PRATT SUNNY 93 65 39 SE10 29.97S HX 95  

 
 
KSZ066>073-081>083-090>101-160000-  
SOUTHEAST KANSAS  
 
CITY SKY/WX TMP DP RH WIND PRES REMARKS
 
CHANUTE TSTM 78 69 73 N12G24 29.97R  
COFFEYVILLE CLOUDY 97 67 37 SW12 29.91R HX 101  
HUTCHINSON MOSUNNY 89 70 53 NE12 29.95F  
MEDICINE LODGE N/A 91 69 48 SE6 29.93S HX 96  
NEWTON CLOUDY 81 72 74 E9 29.99F  
PARSONS SUNNY 95 67 39 SW6 29.96R HX 99  
WICHITA INTL CLOUDY 85 69 58 NE17G29 29.97R  
WICHITA JABRA CLOUDY 80 69 69 NE5 29.98R  
WICHITA MCCONL CLOUDY 82 66 57 E16G24 29.97  
WINFIELD SUNNY 93 70 46 E9 29.95S HX 99  

 
 
KSZ007>012-019>026-033>040-048>060-102>105-160000-  
NORTHEAST KANSAS  
 
CITY SKY/WX TMP DP RH WIND PRES REMARKS
 
CONCORDIA CLOUDY 77 69 76 S10 29.99F  
EMPORIA CLOUDY 83 70 64 S10G17 29.97R  
LAWRENCE CLOUDY 91 73 55 NE8 29.95R HX 99  
MANHATTAN CLOUDY 86 68 54 SW8 29.97R  
MARYSVILLE CLOUDY 88 72 58 NE3 29.98S  
OLATHE IND SUNNY 91 72 53 SE9 29.97S HX 98  
OLATHE EXE MOSUNNY 88 72 58 S6 29.96S  
SALINA LGT RAIN 77 70 79 CALM 29.98R  
TOPEKA BILLARD CLOUDY 92 73 53 NE10 29.94S HX 100  
TOPEKA FORBES CLOUDY 92 71 50 NE8 29.96R HX 98  

 
 
 
CLICK HERE TO GO TO PREVIOUS BULLETINS.

The Nexlab KS Page Main Text Page